Location: Newark
(36.7344°N, 137.0547°E)
Time: 13:29:57
(UTC+00:00)

Envisat - Pass Details

Date: 16 October 2019
Orbit: 764 x 766 km, 98.1° (Epoch: 19 November)

Event Time Altitude Azimuth Distance (km) Brightness Sun altitude
Rises 20:26:38 0° 36° (NE) 3,236 6.7 -7.5°
Reaches altitude 10° 20:30:16 10° 63° (ENE) 2,304 6.5 -6.8°
Maximum altitude 20:32:39 13° 91° (E) 2,076 6.9 -6.3°
Drops below altitude 10° 20:35:02 10° 120° (ESE) 2,296 6.8 -5.8°
Sets 20:38:37 0° 146° (SSE) 3,215 6.9 -5.1°
